CSN5617 ZSPD-ZSNJ

Flight info

Callsign CSN5617
Flight time 0h 37m
Altitude 15700
Route SAS82D SASAN R343 ESBAG ESB71F
Aircraft B738/M-SDE2E3FGHIRWXY/LB1

Departure

Time 2026-05-05 13:59
Airport Shanghai Pudong International Airport (ZSPD)

Arrival

Time 2026-05-05 14:36
Airport Nanjing Lukou International Airport (ZSNJ)
Time Latitude Longitude Altitude Speed Heading
2026-05-05 13:29 31.14068 121.81002 22 ft 0 kts 72°
2026-05-05 13:43 31.14064 121.80988 22 ft 2 kts 66°
2026-05-05 13:43 31.14056 121.80971 22 ft 2 kts 58°
2026-05-05 13:44 31.14046 121.80955 25 ft 2 kts 42°
2026-05-05 13:44 31.14033 121.80944 22 ft 2 kts 19°
2026-05-05 13:44 31.14016 121.80941 24 ft 2 kts 356°
2026-05-05 13:44 31.14001 121.80943 25 ft 1 kts 344°
2026-05-05 13:45 31.13997 121.80945 25 ft 0 kts 342°
2026-05-05 13:48 31.14011 121.80940 24 ft 4 kts 341°
2026-05-05 13:48 31.14047 121.80926 24 ft 7 kts 342°
2026-05-05 13:48 31.14102 121.80905 22 ft 9 kts 342°
2026-05-05 13:49 31.14169 121.80879 22 ft 11 kts 341°
2026-05-05 13:49 31.14251 121.80848 22 ft 13 kts 342°
2026-05-05 13:49 31.14328 121.80797 23 ft 13 kts 290°
2026-05-05 13:49 31.14313 121.80696 22 ft 13 kts 253°
2026-05-05 13:50 31.14286 121.80599 22 ft 13 kts 251°
2026-05-05 13:50 31.14256 121.80490 22 ft 15 kts 252°
2026-05-05 13:50 31.14222 121.80368 24 ft 16 kts 252°
2026-05-05 13:50 31.14216 121.80348 23 ft 1 kts 252°
2026-05-05 13:51 31.14206 121.80311 24 ft 7 kts 252°
2026-05-05 13:51 31.14189 121.80249 23 ft 10 kts 252°
2026-05-05 13:51 31.14161 121.80149 23 ft 17 kts 252°
2026-05-05 13:51 31.14118 121.79993 23 ft 23 kts 252°
2026-05-05 13:52 31.14067 121.79812 22 ft 23 kts 252°
2026-05-05 13:52 31.14037 121.79633 22 ft 22 kts 280°
2026-05-05 13:52 31.14120 121.79575 22 ft 14 kts 342°
2026-05-05 13:52 31.14211 121.79541 22 ft 15 kts 342°
2026-05-05 13:53 31.14323 121.79498 22 ft 19 kts 342°
2026-05-05 13:53 31.14448 121.79451 24 ft 19 kts 342°
2026-05-05 13:53 31.14570 121.79406 22 ft 18 kts 342°
2026-05-05 13:53 31.14688 121.79361 22 ft 17 kts 342°
2026-05-05 13:54 31.14802 121.79318 22 ft 17 kts 342°
2026-05-05 13:54 31.14911 121.79277 22 ft 16 kts 342°
2026-05-05 13:54 31.15016 121.79237 23 ft 16 kts 342°
2026-05-05 13:54 31.15123 121.79197 22 ft 17 kts 342°
2026-05-05 13:55 31.15248 121.79149 22 ft 20 kts 342°
2026-05-05 13:55 31.15381 121.79099 22 ft 20 kts 342°
2026-05-05 13:55 31.15509 121.79051 21 ft 19 kts 342°
2026-05-05 13:55 31.15526 121.79045 21 ft 0 kts 342°
2026-05-05 13:56 31.15537 121.79041 21 ft 5 kts 342°
2026-05-05 13:57 31.15577 121.79025 21 ft 6 kts 339°
2026-05-05 13:57 31.15605 121.78989 21 ft 6 kts 291°
2026-05-05 13:57 31.15606 121.78936 21 ft 7 kts 265°
2026-05-05 13:57 31.15600 121.78869 21 ft 9 kts 263°
2026-05-05 13:58 31.15561 121.78818 23 ft 9 kts 188°
2026-05-05 13:58 31.15504 121.78833 21 ft 0 kts 162°
2026-05-05 13:58 31.15390 121.78877 20 ft 51 kts 162°
2026-05-05 13:58 31.14809 121.79095 26 ft 122 kts 162°
2026-05-05 13:59 31.12799 121.79818 1043 ft 155 kts 165°
2026-05-05 13:59 31.11782 121.80165 1999 ft 151 kts 166°
2026-05-05 14:00 31.09354 121.80975 2685 ft 210 kts 165°
2026-05-05 14:00 31.08377 121.81298 2932 ft 222 kts 165°
2026-05-05 14:00 31.06240 121.82002 2985 ft 255 kts 165°
2026-05-05 14:00 31.04501 121.82573 3236 ft 262 kts 165°
2026-05-05 14:01 31.02839 121.83102 4162 ft 259 kts 169°
2026-05-05 14:01 31.01136 121.83068 5064 ft 262 kts 195°
2026-05-05 14:01 30.99563 121.82127 5597 ft 267 kts 221°
2026-05-05 14:01 30.98444 121.80387 5899 ft 273 kts 245°
2026-05-05 14:02 30.97815 121.78290 5926 ft 275 kts 252°
2026-05-05 14:02 30.97259 121.76164 5920 ft 273 kts 252°
2026-05-05 14:02 30.96699 121.74050 5923 ft 272 kts 252°
2026-05-05 14:02 30.96257 121.71912 5913 ft 273 kts 267°
2026-05-05 14:03 30.96492 121.69702 6146 ft 279 kts 281°
2026-05-05 14:03 30.96910 121.67500 7060 ft 278 kts 282°
2026-05-05 14:03 30.97333 121.65303 7981 ft 279 kts 282°
2026-05-05 14:03 30.97757 121.63082 8801 ft 283 kts 282°
2026-05-05 14:04 30.98182 121.60823 9650 ft 287 kts 282°
2026-05-05 14:04 30.98610 121.58530 10407 ft 294 kts 282°
2026-05-05 14:04 30.99057 121.56114 10661 ft 318 kts 282°
2026-05-05 14:04 30.99373 121.54401 10783 ft 334 kts 282°
2026-05-05 14:05 30.99877 121.51665 10951 ft 357 kts 281°
2026-05-05 14:05 31.00406 121.48784 11372 ft 368 kts 282°
2026-05-05 14:05 31.00946 121.45842 12031 ft 372 kts 282°
2026-05-05 14:05 31.01612 121.42227 12986 ft 374 kts 282°
2026-05-05 14:06 31.01956 121.40357 13375 ft 378 kts 282°
2026-05-05 14:06 31.02496 121.37416 14107 ft 379 kts 282°
2026-05-05 14:06 31.03050 121.34398 14750 ft 383 kts 282°
2026-05-05 14:06 31.03556 121.31636 15327 ft 386 kts 282°
2026-05-05 14:07 31.04116 121.28576 15678 ft 386 kts 282°
2026-05-05 14:07 31.04682 121.25476 15726 ft 398 kts 282°
2026-05-05 14:07 31.05268 121.22270 15734 ft 408 kts 282°
2026-05-05 14:07 31.05954 121.19044 15723 ft 411 kts 290°
2026-05-05 14:08 31.07390 121.16173 15738 ft 412 kts 309°
2026-05-05 14:08 31.09534 121.13967 15739 ft 414 kts 326°
2026-05-05 14:08 31.12138 121.12520 15727 ft 417 kts 341°
2026-05-05 14:08 31.15001 121.11990 15742 ft 419 kts 355°
2026-05-05 14:09 31.17917 121.11870 15730 ft 420 kts 356°
2026-05-05 14:09 31.20833 121.11778 15716 ft 420 kts 356°
2026-05-05 14:09 31.23758 121.11653 15728 ft 420 kts 356°
2026-05-05 14:09 31.26676 121.11498 15721 ft 420 kts 355°
2026-05-05 14:10 31.29591 121.11306 15715 ft 419 kts 352°
2026-05-05 14:10 31.32376 121.10410 15733 ft 415 kts 333°
2026-05-05 14:10 31.34744 121.08518 15742 ft 413 kts 316°
2026-05-05 14:10 31.36580 121.05957 15717 ft 412 kts 301°
2026-05-05 14:11 31.37756 121.02920 15745 ft 411 kts 290°
2026-05-05 14:11 31.38707 120.99762 15723 ft 411 kts 289°
2026-05-05 14:11 31.39629 120.96595 15722 ft 411 kts 289°
2026-05-05 14:11 31.40546 120.93437 15712 ft 411 kts 289°
2026-05-05 14:12 31.41475 120.90268 15724 ft 411 kts 289°
2026-05-05 14:12 31.42413 120.87102 15730 ft 411 kts 289°
2026-05-05 14:12 31.43357 120.83943 15716 ft 411 kts 289°
2026-05-05 14:12 31.44305 120.80783 15723 ft 411 kts 289°
2026-05-05 14:13 31.45252 120.77633 15710 ft 411 kts 289°
2026-05-05 14:13 31.46203 120.74470 15723 ft 411 kts 289°
2026-05-05 14:13 31.47151 120.71314 15723 ft 411 kts 289°
2026-05-05 14:13 31.48101 120.68146 15721 ft 411 kts 289°
2026-05-05 14:14 31.49046 120.64991 15720 ft 411 kts 289°
2026-05-05 14:14 31.49995 120.61821 15720 ft 411 kts 289°
2026-05-05 14:14 31.50940 120.58661 15718 ft 411 kts 289°
2026-05-05 14:14 31.51885 120.55495 15709 ft 412 kts 289°
2026-05-05 14:15 31.52830 120.52329 15717 ft 412 kts 289°
2026-05-05 14:15 31.53774 120.49161 15712 ft 412 kts 289°
2026-05-05 14:15 31.54718 120.45990 15701 ft 412 kts 289°
2026-05-05 14:15 31.55658 120.42827 15710 ft 412 kts 289°
2026-05-05 14:16 31.56602 120.39653 15695 ft 412 kts 289°
2026-05-05 14:16 31.57542 120.36485 15710 ft 412 kts 289°
2026-05-05 14:16 31.58482 120.33315 15705 ft 411 kts 289°
2026-05-05 14:16 31.59128 120.30057 15696 ft 412 kts 276°
2026-05-05 14:17 31.59294 120.26703 15706 ft 412 kts 273°
2026-05-05 14:17 31.59420 120.23345 15690 ft 413 kts 273°
2026-05-05 14:17 31.59547 120.19975 15687 ft 413 kts 273°
2026-05-05 14:17 31.59685 120.16624 15696 ft 413 kts 274°
2026-05-05 14:18 31.59835 120.13254 15698 ft 413 kts 274°
2026-05-05 14:18 31.59992 120.09893 15693 ft 413 kts 274°
2026-05-05 14:18 31.60153 120.06532 15676 ft 413 kts 274°
2026-05-05 14:18 31.60316 120.03171 15692 ft 413 kts 274°
2026-05-05 14:19 31.60476 119.99854 15694 ft 413 kts 274°
2026-05-05 14:19 31.60640 119.96455 15693 ft 413 kts 274°
2026-05-05 14:19 31.60801 119.93083 15670 ft 413 kts 274°
2026-05-05 14:19 31.60958 119.89771 15688 ft 413 kts 274°
2026-05-05 14:20 31.61117 119.86400 15688 ft 413 kts 274°
2026-05-05 14:20 31.61274 119.83038 15685 ft 413 kts 274°
2026-05-05 14:20 31.61431 119.79672 15682 ft 413 kts 274°
2026-05-05 14:20 31.61584 119.76355 15674 ft 402 kts 274°
2026-05-05 14:21 31.61735 119.73099 15660 ft 397 kts 274°
2026-05-05 14:21 31.61883 119.69862 15678 ft 398 kts 274°
2026-05-05 14:21 31.62034 119.66614 15681 ft 399 kts 274°
2026-05-05 14:21 31.62257 119.63362 15186 ft 399 kts 276°
2026-05-05 14:22 31.62543 119.60145 14574 ft 394 kts 277°
2026-05-05 14:22 31.62836 119.57056 13948 ft 390 kts 277°
2026-05-05 14:22 31.63109 119.54176 13274 ft 387 kts 277°
2026-05-05 14:22 31.63394 119.51095 12568 ft 383 kts 277°
2026-05-05 14:23 31.63672 119.48018 11918 ft 380 kts 276°
2026-05-05 14:23 31.63942 119.44951 11263 ft 376 kts 276°
2026-05-05 14:23 31.64203 119.41940 11008 ft 363 kts 276°
2026-05-05 14:23 31.64452 119.39047 10852 ft 351 kts 276°
2026-05-05 14:24 31.64691 119.36254 10709 ft 337 kts 276°
2026-05-05 14:24 31.64919 119.33576 10568 ft 324 kts 276°
2026-05-05 14:24 31.65139 119.30991 10441 ft 312 kts 276°
2026-05-05 14:24 31.65351 119.28499 10310 ft 301 kts 276°
2026-05-05 14:25 31.65555 119.26092 10190 ft 292 kts 276°
2026-05-05 14:25 31.65752 119.23766 10067 ft 283 kts 276°
2026-05-05 14:25 31.65944 119.21493 9847 ft 278 kts 276°
2026-05-05 14:25 31.66134 119.19246 9539 ft 276 kts 276°
2026-05-05 14:26 31.66322 119.17006 9225 ft 274 kts 276°
2026-05-05 14:26 31.66509 119.14790 8927 ft 273 kts 276°
2026-05-05 14:26 31.66694 119.12581 8623 ft 271 kts 275°
2026-05-05 14:26 31.66877 119.10385 8335 ft 269 kts 275°
2026-05-05 14:27 31.67059 119.08210 8038 ft 268 kts 275°
2026-05-05 14:27 31.67239 119.06045 7840 ft 263 kts 275°
2026-05-05 14:27 31.67414 119.03946 7721 ft 255 kts 274°
2026-05-05 14:27 31.67583 119.01907 7604 ft 247 kts 274°
2026-05-05 14:28 31.67746 118.99932 7504 ft 239 kts 274°
2026-05-05 14:28 31.67901 118.98018 7402 ft 231 kts 271°
2026-05-05 14:28 31.67638 118.96207 7210 ft 225 kts 245°
2026-05-05 14:28 31.66893 118.94605 6992 ft 223 kts 237°
2026-05-05 14:29 31.66064 118.93074 6763 ft 222 kts 236°
2026-05-05 14:29 31.65223 118.91546 6506 ft 223 kts 236°
2026-05-05 14:29 31.64388 118.90018 6254 ft 222 kts 236°
2026-05-05 14:29 31.63568 118.88509 6023 ft 222 kts 236°
2026-05-05 14:30 31.62733 118.86966 5934 ft 221 kts 236°
2026-05-05 14:30 31.61917 118.85450 5894 ft 217 kts 236°
2026-05-05 14:30 31.61092 118.83915 5398 ft 228 kts 236°
2026-05-05 14:30 31.60238 118.82325 5033 ft 233 kts 236°
2026-05-05 14:31 31.59382 118.80730 4741 ft 235 kts 236°
2026-05-05 14:31 31.58501 118.79086 4463 ft 235 kts 236°
2026-05-05 14:31 31.57683 118.77463 4169 ft 236 kts 246°
2026-05-05 14:31 31.57480 118.75560 3905 ft 240 kts 276°
2026-05-05 14:32 31.58129 118.73764 3659 ft 244 kts 306°
2026-05-05 14:32 31.59403 118.72449 3429 ft 245 kts 323°
2026-05-05 14:32 31.60852 118.71390 3166 ft 246 kts 331°
2026-05-05 14:32 31.62529 118.70987 2773 ft 252 kts
2026-05-05 14:33 31.64051 118.71819 2540 ft 238 kts 44°
2026-05-05 14:33 31.65111 118.73242 2278 ft 227 kts 54°
2026-05-05 14:33 31.66000 118.74710 1988 ft 215 kts 60°
2026-05-05 14:33 31.66770 118.76162 1703 ft 204 kts 62°
2026-05-05 14:34 31.67496 118.77543 1438 ft 193 kts 61°
2026-05-05 14:34 31.68186 118.78844 1204 ft 182 kts 61°
2026-05-05 14:34 31.68821 118.80042 977 ft 164 kts 61°
2026-05-05 14:34 31.69397 118.81128 766 ft 151 kts 60°
2026-05-05 14:35 31.69944 118.82160 582 ft 148 kts 59°
2026-05-05 14:35 31.70483 118.83178 390 ft 146 kts 59°
2026-05-05 14:35 31.71019 118.84179 211 ft 145 kts 58°
2026-05-05 14:35 31.71543 118.85181 38 ft 142 kts 59°
2026-05-05 14:36 31.71980 118.85989 42 ft 87 kts 57°
2026-05-05 14:36 31.72189 118.86378 40 ft 26 kts 58°
2026-05-05 14:36 31.72259 118.86509 37 ft 18 kts 56°
2026-05-05 14:36 31.72349 118.86610 39 ft 18 kts 37°
2026-05-05 14:37 31.72452 118.86686 37 ft 17 kts 30°
2026-05-05 14:37 31.72554 118.86754 40 ft 17 kts 28°
2026-05-05 14:37 31.72640 118.86836 37 ft 16 kts 57°
2026-05-05 14:37 31.72697 118.86944 39 ft 15 kts 61°
2026-05-05 14:38 31.72772 118.87015 39 ft 15 kts 349°
2026-05-05 14:38 31.72858 118.86956 37 ft 14 kts 326°
2026-05-05 14:38 31.72935 118.86891 39 ft 9 kts 328°
2026-05-05 14:38 31.72953 118.86878 39 ft 0 kts 328°